Time,TemperatureF,DewpointF,PressureIn,WindDirection,WindDirectionDegrees,WindSpeedMPH,WindSpeedGustMPH,Humidity,HourlyPrecipIn,Conditions,Clouds,dailyrainin,SoftwareType,DateUTC
2013-04-21 00:02:00,51.1,35.4,30.21,SSE,157,0.0,0.0,55,0.00,,,0.00,WUHU21623XXSP,2013-04-21 05:02:00,
2013-04-21 00:07:00,51.3,35.6,30.21,SSE,157,0.0,0.0,55,0.00,,,0.00,WUHU21623XXSP,2013-04-21 05:07:00,
2013-04-21 00:12:00,51.4,35.7,30.21,SSE,157,0.0,0.0,55,0.00,,,0.00,WUHU21623XXSP,2013-04-21 05:12:00,
2013-04-21 00:17:00,51.4,35.7,30.21,SSE,157,0.0,0.0,55,0.00,,,0.00,WUHU21623XXSP,2013-04-21 05:17:00,
2013-04-21 00:22:00,51.4,35.7,30.21,SSE,157,0.0,0.0,55,0.00,,,0.00,WUHU21623XXSP,2013-04-21 05:22:00,
2013-04-21 00:27:00,51.4,35.7,30.21,SSE,157,0.0,0.0,55,0.00,,,0.00,WUHU21623XXSP,2013-04-21 05:27:00,
2013-04-21 00:32:00,51.6,35.9,30.21,SSE,157,0.0,0.0,55,0.00,,,0.00,WUHU21623XXSP,2013-04-21 05:32:00,
2013-04-21 00:37:00,51.8,36.0,30.22,SSE,157,0.0,0.0,55,0.00,,,0.00,WUHU21623XXSP,2013-04-21 05:37:00,
2013-04-21 00:42:00,52.0,36.2,30.22,SSE,157,0.0,0.0,55,0.00,,,0.00,WUHU21623XXSP,2013-04-21 05:42:00,
2013-04-21 00:47:00,52.3,36.6,30.21,SSE,157,0.0,0.0,55,0.00,,,0.00,WUHU21623XXSP,2013-04-21 05:47:00,
2013-04-21 00:52:00,52.5,36.3,30.21,South,180,0.0,0.0,54,0.00,,,0.00,WUHU21623XXSP,2013-04-21 05:52:00,
2013-04-21 00:57:00,52.9,36.6,30.21,South,180,0.0,0.0,54,0.00,,,0.00,WUHU21623XXSP,2013-04-21 05:57:00,
2013-04-21 01:02:00,52.9,36.1,30.21,SSE,157,0.0,0.0,53,0.00,,,0.00,WUHU21623XXSP,2013-04-21 06:02:00,
2013-04-21 01:15:00,53.4,36.2,30.22,SSE,157,0.0,0.0,52,0.00,,,0.00,WUHU21623XXSP,2013-04-21 06:15:00,
2013-04-21 01:20:00,53.4,36.2,30.22,SSE,157,0.0,0.0,52,0.00,,,0.00,WUHU21623XXSP,2013-04-21 06:20:00,
2013-04-21 01:25:00,53.4,36.2,30.22,SSE,157,0.0,0.0,52,0.00,,,0.00,WUHU21623XXSP,2013-04-21 06:25:00,
2013-04-21 01:30:00,53.4,36.6,30.22,SSE,157,0.0,0.0,53,0.00,,,0.00,WUHU21623XXSP,2013-04-21 06:30:00,
2013-04-21 01:35:00,53.4,36.6,30.22,SSE,157,0.0,0.0,53,0.00,,,0.00,WUHU21623XXSP,2013-04-21 06:35:00,
2013-04-21 01:40:00,53.2,36.5,30.22,SSE,157,0.0,0.0,53,0.00,,,0.00,WUHU21623XXSP,2013-04-21 06:40:00,
2013-04-21 01:45:00,53.1,36.3,30.22,SSE,157,0.0,0.0,53,0.00,,,0.00,WUHU21623XXSP,2013-04-21 06:45:00,
2013-04-21 01:50:00,52.7,36.4,30.22,SSE,157,0.0,0.0,54,0.00,,,0.00,WUHU21623XXSP,2013-04-21 06:50:00,
2013-04-21 01:55:00,52.3,36.1,30.22,SSE,157,0.0,0.0,54,0.00,,,0.00,WUHU21623XXSP,2013-04-21 06:55:00,
2013-04-21 02:00:00,52.2,36.1,30.23,SSE,157,0.0,0.0,54,0.00,,,0.00,WUHU21623XXSP,2013-04-21 07:00:00,
2013-04-21 02:05:00,51.8,36.5,30.22,SSE,157,0.0,0.0,56,0.00,,,0.00,WUHU21623XXSP,2013-04-21 07:05:00,
2013-04-21 02:10:00,51.6,36.5,30.22,SSE,157,0.0,0.0,56,0.00,,,0.00,WUHU21623XXSP,2013-04-21 07:10:00,
2013-04-21 02:15:00,51.6,36.3,30.22,SSE,157,0.0,0.0,56,0.00,,,0.00,WUHU21623XXSP,2013-04-21 07:15:00,
2013-04-21 02:20:00,51.6,36.3,30.22,SSE,157,0.0,0.0,56,0.00,,,0.00,WUHU21623XXSP,2013-04-21 07:20:00,
2013-04-21 02:25:00,51.6,36.8,30.22,SSE,157,0.0,0.0,57,0.00,,,0.00,WUHU21623XXSP,2013-04-21 07:25:00,
2013-04-21 02:30:00,51.4,36.6,30.22,SSE,157,0.0,0.0,57,0.00,,,0.00,WUHU21623XXSP,2013-04-21 07:30:00,
2013-04-21 02:35:00,51.4,37.1,30.22,SSE,157,0.0,0.0,58,0.00,,,0.00,WUHU21623XXSP,2013-04-21 07:35:00,
2013-04-21 02:40:00,51.4,37.1,30.22,SSE,157,0.0,0.0,58,0.00,,,0.00,WUHU21623XXSP,2013-04-21 07:40:00,
2013-04-21 02:45:00,51.4,37.1,30.22,SSE,157,0.0,0.0,58,0.00,,,0.00,WUHU21623XXSP,2013-04-21 07:45:00,
2013-04-21 02:50:00,51.3,36.9,30.22,SSE,157,0.0,0.0,58,0.00,,,0.00,WUHU21623XXSP,2013-04-21 07:50:00,
2013-04-21 02:55:00,51.1,37.2,30.22,SSE,157,0.0,0.0,59,0.00,,,0.00,WUHU21623XXSP,2013-04-21 07:55:00,
2013-04-21 03:00:00,51.1,37.2,30.23,SSE,157,0.0,0.0,59,0.00,,,0.00,WUHU21623XXSP,2013-04-21 08:00:00,
2013-04-21 03:05:00,51.1,37.2,30.23,SSE,157,0.0,0.0,59,0.00,,,0.00,WUHU21623XXSP,2013-04-21 08:05:00,
2013-04-21 03:10:00,51.3,37.4,30.23,SSE,157,0.0,0.0,59,0.00,,,0.00,WUHU21623XXSP,2013-04-21 08:10:00,
2013-04-21 03:15:00,51.3,37.4,30.23,SSE,157,0.0,0.0,59,0.00,,,0.00,WUHU21623XXSP,2013-04-21 08:15:00,
2013-04-21 03:20:00,51.3,37.4,30.23,SSE,157,0.0,0.0,59,0.00,,,0.00,WUHU21623XXSP,2013-04-21 08:20:00,
2013-04-21 03:25:00,51.1,37.2,30.23,SSE,157,0.0,0.0,59,0.00,,,0.00,WUHU21623XXSP,2013-04-21 08:25:00,
2013-04-21 03:30:00,50.9,37.0,30.23,SSE,157,0.0,0.0,59,0.00,,,0.00,WUHU21623XXSP,2013-04-21 08:30:00,
2013-04-21 03:35:00,50.7,36.9,30.24,SSE,157,0.0,0.0,59,0.00,,,0.00,WUHU21623XXSP,2013-04-21 08:35:00,
2013-04-21 03:40:00,50.5,37.2,30.24,SSE,157,0.0,0.0,60,0.00,,,0.00,WUHU21623XXSP,2013-04-21 08:40:00,
2013-04-21 03:45:00,50.0,37.1,30.24,SSE,157,0.0,0.0,61,0.00,,,0.00,WUHU21623XXSP,2013-04-21 08:45:00,
2013-04-21 03:50:00,49.6,36.7,30.25,SSE,157,0.0,0.0,61,0.00,,,0.00,WUHU21623XXSP,2013-04-21 08:50:00,
2013-04-21 03:55:00,49.3,36.7,30.25,SSE,157,0.0,0.0,61,0.00,,,0.00,WUHU21623XXSP,2013-04-21 08:55:00,
2013-04-21 04:00:00,49.1,36.6,30.25,SSE,157,0.0,0.0,62,0.00,,,0.00,WUHU21623XXSP,2013-04-21 09:00:00,
2013-04-21 04:05:00,48.7,36.7,30.25,SSE,157,0.0,0.0,63,0.00,,,0.00,WUHU21623XXSP,2013-04-21 09:05:00,
2013-04-21 04:10:00,48.7,36.7,30.25,SSE,157,0.0,0.0,63,0.00,,,0.00,WUHU21623XXSP,2013-04-21 09:10:00,
2013-04-21 04:15:00,48.2,36.2,30.26,SSE,157,0.0,0.0,63,0.00,,,0.00,WUHU21623XXSP,2013-04-21 09:15:00,
2013-04-21 04:20:00,48.0,36.4,30.25,SSE,157,0.0,0.0,64,0.00,,,0.00,WUHU21623XXSP,2013-04-21 09:20:00,
2013-04-21 04:25:00,47.8,36.6,30.25,SSE,157,0.0,0.0,65,0.00,,,0.00,WUHU21623XXSP,2013-04-21 09:25:00,
2013-04-21 04:30:00,47.5,36.3,30.25,SSE,157,0.0,0.0,65,0.00,,,0.00,WUHU21623XXSP,2013-04-21 09:30:00,
2013-04-21 04:35:00,47.5,36.3,30.26,SSE,157,0.0,0.0,65,0.00,,,0.00,WUHU21623XXSP,2013-04-21 09:35:00,
2013-04-21 04:40:00,47.8,36.6,30.26,SSE,157,0.0,0.0,65,0.00,,,0.00,WUHU21623XXSP,2013-04-21 09:40:00,
2013-04-21 04:45:00,47.8,36.2,30.26,SSE,157,0.0,0.0,64,0.00,,,0.00,WUHU21623XXSP,2013-04-21 09:45:00,
2013-04-21 04:50:00,47.8,36.2,30.26,SSE,157,0.0,0.0,64,0.00,,,0.00,WUHU21623XXSP,2013-04-21 09:50:00,
2013-04-21 04:55:00,47.7,36.0,30.26,SSE,157,0.0,0.0,64,0.00,,,0.00,WUHU21623XXSP,2013-04-21 09:55:00,
2013-04-21 05:00:00,47.3,35.7,30.26,SSE,157,0.0,0.0,64,0.00,,,0.00,WUHU21623XXSP,2013-04-21 10:00:00,
2013-04-21 05:05:00,47.1,35.9,30.26,SSE,157,0.0,0.0,65,0.00,,,0.00,WUHU21623XXSP,2013-04-21 10:05:00,
2013-04-21 05:10:00,47.1,36.3,30.26,SSE,157,0.0,0.0,66,0.00,,,0.00,WUHU21623XXSP,2013-04-21 10:10:00,
2013-04-21 05:15:00,46.8,36.0,30.26,SSE,157,0.0,0.0,66,0.00,,,0.00,WUHU21623XXSP,2013-04-21 10:15:00,
2013-04-21 05:20:00,46.6,35.8,30.26,SSE,157,0.0,0.0,66,0.00,,,0.00,WUHU21623XXSP,2013-04-21 10:20:00,
2013-04-21 05:25:00,46.2,35.8,30.26,SSE,157,0.0,0.0,66,0.00,,,0.00,WUHU21623XXSP,2013-04-21 10:25:00,
2013-04-21 05:30:00,46.0,35.7,30.25,SSE,157,0.0,0.0,67,0.00,,,0.00,WUHU21623XXSP,2013-04-21 10:30:00,
2013-04-21 05:35:00,45.7,35.7,30.26,SSE,157,0.0,0.0,68,0.00,,,0.00,WUHU21623XXSP,2013-04-21 10:35:00,
2013-04-21 05:40:00,45.5,35.5,30.26,SSE,157,0.0,0.0,68,0.00,,,0.00,WUHU21623XXSP,2013-04-21 10:40:00,
2013-04-21 05:45:00,45.3,35.7,30.26,SSE,157,0.0,0.0,69,0.00,,,0.00,WUHU21623XXSP,2013-04-21 10:45:00,
2013-04-21 05:50:00,45.3,36.1,30.26,SSE,157,0.0,0.0,70,0.00,,,0.00,WUHU21623XXSP,2013-04-21 10:50:00,
2013-04-21 05:55:00,45.5,36.3,30.26,SSE,157,0.0,0.0,70,0.00,,,0.00,WUHU21623XXSP,2013-04-21 10:55:00,
2013-04-21 06:00:00,45.7,36.5,30.27,SSE,157,0.0,0.0,70,0.00,,,0.00,WUHU21623XXSP,2013-04-21 11:00:00,
2013-04-21 06:05:00,45.7,36.8,30.27,SSE,157,0.0,0.0,71,0.00,,,0.00,WUHU21623XXSP,2013-04-21 11:05:00,
2013-04-21 06:10:00,45.7,36.5,30.27,SSE,157,0.0,0.0,70,0.00,,,0.00,WUHU21623XXSP,2013-04-21 11:10:00,
2013-04-21 06:15:00,45.7,36.5,30.27,SSE,157,0.0,0.0,70,0.00,,,0.00,WUHU21623XXSP,2013-04-21 11:15:00,
2013-04-21 06:20:00,45.7,36.5,30.27,SSE,157,0.0,0.0,70,0.00,,,0.00,WUHU21623XXSP,2013-04-21 11:20:00,
2013-04-21 06:25:00,45.7,36.5,30.27,SSE,157,0.0,0.0,70,0.00,,,0.00,WUHU21623XXSP,2013-04-21 11:25:00,
2013-04-21 06:30:00,45.7,36.5,30.27,SSE,157,0.0,0.0,70,0.00,,,0.00,WUHU21623XXSP,2013-04-21 11:30:00,
2013-04-21 06:35:00,45.9,36.7,30.27,SSE,157,0.0,0.0,70,0.00,,,0.00,WUHU21623XXSP,2013-04-21 11:35:00,
2013-04-21 06:40:00,46.0,36.9,30.27,SSE,157,0.0,0.0,70,0.00,,,0.00,WUHU21623XXSP,2013-04-21 11:40:00,
2013-04-21 06:45:00,46.2,37.0,30.28,SSE,157,0.0,0.0,70,0.00,,,0.00,WUHU21623XXSP,2013-04-21 11:45:00,
2013-04-21 06:50:00,46.2,37.4,30.28,SSE,157,0.0,0.0,71,0.00,,,0.00,WUHU21623XXSP,2013-04-21 11:50:00,
2013-04-21 06:55:00,46.2,37.4,30.28,SSE,157,0.0,0.0,70,0.00,,,0.00,WUHU21623XXSP,2013-04-21 11:55:00,
2013-04-21 07:00:00,46.6,37.7,30.28,SSE,157,0.0,0.0,71,0.00,,,0.00,WUHU21623XXSP,2013-04-21 12:00:00,
2013-04-21 07:05:00,46.6,38.1,30.28,SSE,157,0.0,0.0,72,0.00,,,0.00,WUHU21623XXSP,2013-04-21 12:05:00,
2013-04-21 07:10:00,46.9,38.4,30.28,SSE,157,0.0,0.0,72,0.00,,,0.00,WUHU21623XXSP,2013-04-21 12:10:00,
2013-04-21 07:15:00,47.1,38.4,30.28,SSE,157,0.0,0.0,73,0.00,,,0.00,WUHU21623XXSP,2013-04-21 12:15:00,
2013-04-21 07:20:00,47.1,38.9,30.28,SSE,157,0.0,0.0,73,0.00,,,0.00,WUHU21623XXSP,2013-04-21 12:20:00,
2013-04-21 07:25:00,47.5,39.2,30.29,SSE,157,0.0,0.0,73,0.00,,,0.00,WUHU21623XXSP,2013-04-21 12:25:00,
2013-04-21 07:30:00,48.0,40.0,30.29,SSE,157,0.0,0.0,74,0.00,,,0.00,WUHU21623XXSP,2013-04-21 12:30:00,
2013-04-21 07:35:00,48.6,40.0,30.29,SSE,157,0.0,0.0,74,0.00,,,0.00,WUHU21623XXSP,2013-04-21 12:35:00,
2013-04-21 07:40:00,49.1,41.1,30.29,SSE,157,0.0,0.0,74,0.00,,,0.00,WUHU21623XXSP,2013-04-21 12:40:00,
2013-04-21 07:45:00,50.0,42.0,30.29,SSE,157,0.0,0.0,74,0.00,,,0.00,WUHU21623XXSP,2013-04-21 12:45:00,
2013-04-21 07:50:00,50.4,42.0,30.29,SSE,157,0.0,0.0,73,0.00,,,0.00,WUHU21623XXSP,2013-04-21 12:50:00,
2013-04-21 07:55:00,50.9,42.0,30.29,SSE,157,0.0,0.0,71,0.00,,,0.00,WUHU21623XXSP,2013-04-21 12:55:00,
2013-04-21 08:00:00,51.4,42.1,30.29,SSE,157,0.0,0.0,70,0.00,,,0.00,WUHU21623XXSP,2013-04-21 13:00:00,
2013-04-21 08:05:00,51.6,41.8,30.29,SSE,157,0.0,0.0,69,0.00,,,0.00,WUHU21623XXSP,2013-04-21 13:05:00,
2013-04-21 08:10:00,52.2,42.4,30.29,SSE,157,0.0,0.0,69,0.00,,,0.00,WUHU21623XXSP,2013-04-21 13:10:00,
2013-04-21 08:15:00,52.9,42.2,30.30,SSE,157,0.0,0.0,67,0.00,,,0.00,WUHU21623XXSP,2013-04-21 13:15:00,
2013-04-21 08:20:00,53.1,42.2,30.30,SSE,157,0.0,0.0,67,0.00,,,0.00,WUHU21623XXSP,2013-04-21 13:20:00,
2013-04-21 08:25:00,53.2,42.1,30.30,SSE,157,0.0,0.0,66,0.00,,,0.00,WUHU21623XXSP,2013-04-21 13:25:00,
2013-04-21 08:30:00,53.4,41.9,30.30,SSE,157,0.0,0.0,65,0.00,,,0.00,WUHU21623XXSP,2013-04-21 13:30:00,
2013-04-21 08:35:00,53.8,41.1,30.30,SSE,157,0.0,0.0,62,0.00,,,0.00,WUHU21623XXSP,2013-04-21 13:35:00,
2013-04-21 08:40:00,54.1,40.1,30.30,SSE,157,0.0,0.0,59,0.00,,,0.00,WUHU21623XXSP,2013-04-21 13:40:00,
2013-04-21 08:45:00,54.7,39.7,30.30,South,180,0.0,0.0,57,0.00,,,0.00,WUHU21623XXSP,2013-04-21 13:45:00,
2013-04-21 08:50:00,55.2,39.7,30.31,SSE,157,0.9,0.9,56,0.00,,,0.00,WUHU21623XXSP,2013-04-21 13:50:00,
2013-04-21 08:55:00,55.4,38.8,30.31,SSE,157,0.0,0.9,54,0.00,,,0.00,WUHU21623XXSP,2013-04-21 13:55:00,
2013-04-21 09:00:00,55.6,39.1,30.30,SSE,157,0.0,0.0,54,0.00,,,0.00,WUHU21623XXSP,2013-04-21 14:00:00,
2013-04-21 09:05:00,55.9,39.0,30.31,SSW,202,0.4,0.4,53,0.00,,,0.00,WUHU21623XXSP,2013-04-21 14:05:00,
2013-04-21 09:10:00,55.9,39.0,30.31,South,180,0.0,0.4,53,0.00,,,0.00,WUHU21623XXSP,2013-04-21 14:10:00,
2013-04-21 09:15:00,55.9,39.0,30.31,South,180,0.0,0.0,53,0.00,,,0.00,WUHU21623XXSP,2013-04-21 14:15:00,
2013-04-21 09:20:00,56.1,39.2,30.31,SSE,157,0.0,0.0,53,0.00,,,0.00,WUHU21623XXSP,2013-04-21 14:20:00,
2013-04-21 09:25:00,56.1,38.7,30.30,SSE,157,0.0,0.0,52,0.00,,,0.00,WUHU21623XXSP,2013-04-21 14:25:00,
2013-04-21 09:30:00,56.3,38.4,30.30,SSE,157,0.0,0.0,51,0.00,,,0.00,WUHU21623XXSP,2013-04-21 14:30:00,
2013-04-21 09:35:00,56.3,38.9,30.30,SSW,202,0.0,0.0,52,0.00,,,0.00,WUHU21623XXSP,2013-04-21 14:35:00,
2013-04-21 09:40:00,56.5,39.1,30.30,SSE,157,0.0,1.1,52,0.00,,,0.00,WUHU21623XXSP,2013-04-21 14:40:00,
2013-04-21 09:45:00,56.8,39.4,30.30,SSE,157,0.0,1.1,52,0.00,,,0.00,WUHU21623XXSP,2013-04-21 14:45:00,
2013-04-21 09:50:00,56.8,38.9,30.30,ESE,112,0.0,0.0,52,0.00,,,0.00,WUHU21623XXSP,2013-04-21 14:50:00,
2013-04-21 09:55:00,57.0,39.1,30.30,SSE,157,0.0,3.1,51,0.00,,,0.00,WUHU21623XXSP,2013-04-21 14:55:00,
2013-04-21 10:00:00,57.4,39.9,30.30,SSE,157,0.0,3.1,52,0.00,,,0.00,WUHU21623XXSP,2013-04-21 15:00:00,
2013-04-21 10:05:00,57.6,39.2,30.30,SSE,157,0.2,0.2,50,0.00,,,0.00,WUHU21623XXSP,2013-04-21 15:05:00,
2013-04-21 10:10:00,57.7,38.8,30.30,SSE,157,0.0,0.2,49,0.00,,,0.00,WUHU21623XXSP,2013-04-21 15:10:00,
2013-04-21 10:15:00,57.7,39.3,30.30,SSE,157,0.0,0.0,50,0.00,,,0.00,WUHU21623XXSP,2013-04-21 15:15:00,
2013-04-21 10:20:00,57.7,38.8,30.30,SSE,157,0.0,0.0,49,0.00,,,0.00,WUHU21623XXSP,2013-04-21 15:20:00,
2013-04-21 10:25:00,57.9,38.9,30.31,South,180,0.0,0.0,49,0.00,,,0.00,WUHU21623XXSP,2013-04-21 15:25:00,
2013-04-21 10:30:00,58.1,39.1,30.31,SSE,157,0.0,0.0,49,0.00,,,0.00,WUHU21623XXSP,2013-04-21 15:30:00,
2013-04-21 10:35:00,58.6,39.0,30.31,SSE,157,0.0,0.0,48,0.00,,,0.00,WUHU21623XXSP,2013-04-21 15:35:00,
2013-04-21 10:40:00,58.8,39.7,30.31,SSW,202,0.7,0.7,48,0.00,,,0.00,WUHU21623XXSP,2013-04-21 15:40:00,
2013-04-21 10:45:00,59.5,39.8,30.31,SSE,157,0.0,2.5,48,0.00,,,0.00,WUHU21623XXSP,2013-04-21 15:45:00,
2013-04-21 10:50:00,60.1,39.7,30.30,SE,135,0.0,2.5,47,0.00,,,0.00,WUHU21623XXSP,2013-04-21 15:50:00,
2013-04-21 10:55:00,61.0,40.8,30.30,SSE,157,0.0,0.0,46,0.00,,,0.00,WUHU21623XXSP,2013-04-21 15:55:00,
2013-04-21 11:00:00,61.3,40.3,30.30,SSE,157,0.0,0.0,46,0.00,,,0.00,WUHU21623XXSP,2013-04-21 16:00:00,
2013-04-21 11:05:00,61.2,40.1,30.30,South,180,9.6,12.3,46,0.00,,,0.00,WUHU21623XXSP,2013-04-21 16:05:00,
2013-04-21 11:10:00,61.0,38.8,30.30,South,180,5.1,12.3,44,0.00,,,0.00,WUHU21623XXSP,2013-04-21 16:10:00,
2013-04-21 11:15:00,60.8,39.2,30.30,SSE,157,0.9,5.1,45,0.00,,,0.00,WUHU21623XXSP,2013-04-21 16:15:00,
2013-04-21 11:20:00,61.0,39.4,30.30,SE,135,4.3,5.1,45,0.00,,,0.00,WUHU21623XXSP,2013-04-21 16:20:00,
2013-04-21 11:25:00,61.0,39.4,30.31,ESE,112,0.0,6.5,45,0.00,,,0.00,WUHU21623XXSP,2013-04-21 16:25:00,
2013-04-21 11:30:00,61.0,38.8,30.30,SSE,157,5.4,6.5,44,0.00,,,0.00,WUHU21623XXSP,2013-04-21 16:30:00,
2013-04-21 11:35:00,61.0,39.4,30.30,SSE,157,0.0,5.4,45,0.00,,,0.00,WUHU21623XXSP,2013-04-21 16:35:00,
2013-04-21 11:40:00,61.2,38.9,30.30,SSE,157,0.0,0.0,44,0.00,,,0.00,WUHU21623XXSP,2013-04-21 16:40:00,
2013-04-21 11:45:00,61.0,38.4,30.29,South,180,6.9,6.9,44,0.00,,,0.00,WUHU21623XXSP,2013-04-21 16:45:00,
2013-04-21 11:50:00,61.0,38.8,30.29,South,180,0.0,6.9,44,0.00,,,0.00,WUHU21623XXSP,2013-04-21 16:50:00,
2013-04-21 11:55:00,60.8,38.6,30.30,SSW,202,2.9,8.7,44,0.00,,,0.00,WUHU21623XXSP,2013-04-21 16:55:00,
2013-04-21 12:00:00,60.8,38.8,30.29,South,180,0.0,8.7,45,0.00,,,0.00,WUHU21623XXSP,2013-04-21 17:00:00,
2013-04-21 12:05:00,61.0,38.6,30.29,South,180,2.2,2.2,45,0.00,,,0.00,WUHU21623XXSP,2013-04-21 17:05:00,
2013-04-21 12:10:00,61.2,38.9,30.29,SSW,202,0.0,8.1,44,0.00,,,0.00,WUHU21623XXSP,2013-04-21 17:10:00,
2013-04-21 12:15:00,61.3,39.7,30.28,SSE,157,0.0,8.1,45,0.00,,,0.00,WUHU21623XXSP,2013-04-21 17:15:00,
2013-04-21 12:20:00,61.5,39.3,30.28,SSE,157,2.5,3.8,44,0.00,,,0.00,WUHU21623XXSP,2013-04-21 17:20:00,
2013-04-21 12:25:00,62.1,40.3,30.27,SSE,157,0.0,3.8,45,0.00,,,0.00,WUHU21623XXSP,2013-04-21 17:25:00,
2013-04-21 12:30:00,62.4,38.9,30.27,SSE,157,0.0,2.5,42,0.00,,,0.00,WUHU21623XXSP,2013-04-21 17:30:00,
2013-04-21 12:35:00,62.6,39.1,30.27,SSE,157,0.0,4.0,42,0.00,,,0.00,WUHU21623XXSP,2013-04-21 17:35:00,
2013-04-21 12:40:00,63.0,38.8,30.27,SSE,157,5.6,5.6,41,0.00,,,0.00,WUHU21623XXSP,2013-04-21 17:40:00,
2013-04-21 12:45:00,63.0,38.8,30.27,SSE,157,0.0,5.6,41,0.00,,,0.00,WUHU21623XXSP,2013-04-21 17:45:00,
2013-04-21 12:50:00,62.8,38.7,30.27,South,180,0.0,2.9,41,0.00,,,0.00,WUHU21623XXSP,2013-04-21 17:50:00,
2013-04-21 12:55:00,63.1,39.0,30.27,SSE,157,2.7,2.9,41,0.00,,,0.00,WUHU21623XXSP,2013-04-21 17:55:00,
2013-04-21 13:00:00,63.3,37.9,30.26,SSE,157,0.0,2.7,39,0.00,,,0.00,WUHU21623XXSP,2013-04-21 18:00:00,
2013-04-21 13:05:00,63.3,37.9,30.26,South,180,0.0,0.0,39,0.00,,,0.00,WUHU21623XXSP,2013-04-21 18:05:00,
2013-04-21 13:10:00,64.2,38.0,30.26,South,180,1.1,3.6,38,0.00,,,0.00,WUHU21623XXSP,2013-04-21 18:10:00,
2013-04-21 13:15:00,64.8,38.4,30.26,SSE,157,0.0,3.6,38,0.00,,,0.00,WUHU21623XXSP,2013-04-21 18:15:00,
2013-04-21 13:20:00,65.1,38.0,30.26,SSE,157,3.6,3.6,37,0.00,,,0.00,WUHU21623XXSP,2013-04-21 18:20:00,
2013-04-21 13:25:00,64.9,36.4,30.25,SE,135,0.0,10.1,35,0.00,,,0.00,WUHU21623XXSP,2013-04-21 18:25:00,
2013-04-21 13:30:00,65.1,36.6,30.25,SSE,157,8.5,10.1,35,0.00,,,0.00,WUHU21623XXSP,2013-04-21 18:30:00,
2013-04-21 13:35:00,65.8,37.3,30.25,SSE,157,0.2,8.5,35,0.00,,,0.00,WUHU21623XXSP,2013-04-21 18:35:00,
2013-04-21 13:40:00,66.0,36.7,30.24,South,180,1.3,1.3,34,0.00,,,0.00,WUHU21623XXSP,2013-04-21 18:40:00,
2013-04-21 13:45:00,65.8,36.5,30.24,SSE,157,2.0,6.0,34,0.00,,,0.00,WUHU21623XXSP,2013-04-21 18:45:00,
2013-04-21 13:50:00,66.0,37.4,30.23,SSE,157,0.0,6.0,35,0.00,,,0.00,WUHU21623XXSP,2013-04-21 18:50:00,
2013-04-21 13:55:00,67.5,39.4,30.23,South,180,0.0,0.0,36,0.00,,,0.00,WUHU21623XXSP,2013-04-21 18:55:00,
2013-04-21 14:00:00,68.5,38.9,30.23,South,180,0.0,1.6,34,0.00,,,0.00,WUHU21623XXSP,2013-04-21 19:00:00,
2013-04-21 14:05:00,69.4,39.7,30.23,SSE,157,0.0,1.6,34,0.00,,,0.00,WUHU21623XXSP,2013-04-21 19:05:00,
2013-04-21 14:10:00,69.8,38.5,30.23,ESE,112,0.4,2.5,32,0.00,,,0.00,WUHU21623XXSP,2013-04-21 19:10:00,
2013-04-21 14:15:00,70.0,37.9,30.23,SSE,157,0.0,7.8,31,0.00,,,0.00,WUHU21623XXSP,2013-04-21 19:15:00,
2013-04-21 14:20:00,69.8,37.8,30.22,SSE,157,0.0,7.8,31,0.00,,,0.00,WUHU21623XXSP,2013-04-21 19:20:00,
2013-04-21 14:25:00,68.7,36.8,30.22,SE,135,0.0,2.9,31,0.00,,,0.00,WUHU21623XXSP,2013-04-21 19:25:00,
2013-04-21 14:30:00,68.4,37.2,30.22,SSE,157,0.0,2.2,32,0.00,,,0.00,WUHU21623XXSP,2013-04-21 19:30:00,
2013-04-21 14:35:00,68.4,38.0,30.22,SSE,157,0.0,0.0,33,0.00,,,0.00,WUHU21623XXSP,2013-04-21 19:35:00,
2013-04-21 14:40:00,68.2,37.1,30.21,SSE,157,3.1,3.1,32,0.00,,,0.00,WUHU21623XXSP,2013-04-21 19:40:00,
2013-04-21 14:45:00,68.2,37.1,30.21,SE,135,0.0,3.1,32,0.00,,,0.00,WUHU21623XXSP,2013-04-21 19:45:00,
2013-04-21 14:50:00,68.4,37.2,30.21,SSW,202,7.4,9.2,32,0.00,,,0.00,WUHU21623XXSP,2013-04-21 19:50:00,
2013-04-21 14:55:00,69.1,38.3,30.21,SSE,157,0.0,9.2,33,0.00,,,0.00,WUHU21623XXSP,2013-04-21 19:55:00,
2013-04-21 15:00:00,69.4,39.7,30.21,SSE,157,0.7,0.7,34,0.00,,,0.00,WUHU21623XXSP,2013-04-21 20:00:00,
2013-04-21 15:05:00,69.6,39.8,30.20,South,180,0.0,1.3,34,0.00,,,0.00,WUHU21623XXSP,2013-04-21 20:05:00,
2013-04-21 15:10:00,69.6,39.8,30.20,WSW,247,0.0,1.3,34,0.00,,,0.00,WUHU21623XXSP,2013-04-21 20:10:00,
2013-04-21 15:15:00,69.4,39.7,30.20,South,180,0.0,0.0,34,0.00,,,0.00,WUHU21623XXSP,2013-04-21 20:15:00,
2013-04-21 15:20:00,69.6,39.8,30.19,SSE,157,4.5,4.5,34,0.00,,,0.00,WUHU21623XXSP,2013-04-21 20:20:00,
2013-04-21 15:25:00,69.6,38.4,30.19,SSE,157,1.8,6.7,32,0.00,,,0.00,WUHU21623XXSP,2013-04-21 20:25:00,
2013-04-21 15:30:00,69.4,38.9,30.18,SSE,157,4.7,6.7,34,0.00,,,0.00,WUHU21623XXSP,2013-04-21 20:30:00,
2013-04-21 15:35:00,69.8,40.0,30.18,SSE,157,0.0,9.2,34,0.00,,,0.00,WUHU21623XXSP,2013-04-21 20:35:00,
2013-04-21 15:40:00,70.9,41.0,30.18,SSW,202,0.0,9.2,34,0.00,,,0.00,WUHU21623XXSP,2013-04-21 20:40:00,
2013-04-21 15:45:00,71.2,39.8,30.18,SSE,157,1.8,2.0,32,0.00,,,0.00,WUHU21623XXSP,2013-04-21 20:45:00,
2013-04-21 15:50:00,70.9,41.0,30.18,SW,225,0.0,3.6,34,0.00,,,0.00,WUHU21623XXSP,2013-04-21 20:50:00,
2013-04-21 15:55:00,70.9,40.2,30.18,SSE,157,2.5,3.6,33,0.00,,,0.00,WUHU21623XXSP,2013-04-21 20:55:00,
2013-04-21 16:00:00,71.2,39.8,30.18,South,180,7.6,7.6,32,0.00,,,0.00,WUHU21623XXSP,2013-04-21 21:00:00,
2013-04-21 16:05:00,71.2,40.5,30.18,SSE,157,0.0,7.6,33,0.00,,,0.00,WUHU21623XXSP,2013-04-21 21:05:00,
2013-04-21 16:10:00,71.2,40.5,30.18,SE,135,0.0,4.7,33,0.00,,,0.00,WUHU21623XXSP,2013-04-21 21:10:00,
2013-04-21 16:15:00,71.4,40.7,30.18,SSE,157,0.0,4.7,33,0.00,,,0.00,WUHU21623XXSP,2013-04-21 21:15:00,
2013-04-21 16:20:00,71.8,41.0,30.18,SSE,157,0.0,0.0,33,0.00,,,0.00,WUHU21623XXSP,2013-04-21 21:20:00,
2013-04-21 16:25:00,71.8,41.0,30.18,SSW,202,0.0,3.1,33,0.00,,,0.00,WUHU21623XXSP,2013-04-21 21:25:00,
2013-04-21 16:30:00,71.6,40.9,30.17,South,180,3.8,3.8,33,0.00,,,0.00,WUHU21623XXSP,2013-04-21 21:30:00,
2013-04-21 16:35:00,71.4,41.5,30.17,SSE,157,2.2,3.8,34,0.00,,,0.00,WUHU21623XXSP,2013-04-21 21:35:00,
2013-04-21 16:40:00,71.4,40.7,30.18,ESE,112,0.0,3.8,33,0.00,,,0.00,WUHU21623XXSP,2013-04-21 21:40:00,
2013-04-21 16:45:00,71.4,41.5,30.17,ESE,112,0.0,5.8,34,0.00,,,0.00,WUHU21623XXSP,2013-04-21 21:45:00,
2013-04-21 16:50:00,71.2,40.5,30.17,SSE,157,0.0,5.8,33,0.00,,,0.00,WUHU21623XXSP,2013-04-21 21:50:00,
2013-04-21 16:55:00,71.1,41.1,30.17,SE,135,0.0,0.0,34,0.00,,,0.00,WUHU21623XXSP,2013-04-21 21:55:00,
2013-04-21 17:00:00,70.9,41.0,30.17,South,180,0.0,0.0,34,0.00,,,0.00,WUHU21623XXSP,2013-04-21 22:00:00,
2013-04-21 17:05:00,70.7,40.8,30.17,SE,135,0.2,2.7,34,0.00,,,0.00,WUHU21623XXSP,2013-04-21 22:05:00,
2013-04-21 17:10:00,70.3,40.5,30.18,SSE,157,7.2,7.2,34,0.00,,,0.00,WUHU21623XXSP,2013-04-21 22:10:00,
2013-04-21 17:15:00,70.0,40.2,30.17,SW,225,0.0,7.2,34,0.00,,,0.00,WUHU21623XXSP,2013-04-21 22:15:00,
2013-04-21 17:20:00,69.4,40.4,30.17,SE,135,0.0,7.6,35,0.00,,,0.00,WUHU21623XXSP,2013-04-21 22:20:00,
2013-04-21 17:25:00,69.1,40.1,30.17,SSE,157,0.9,7.6,35,0.00,,,0.00,WUHU21623XXSP,2013-04-21 22:25:00,
2013-04-21 17:30:00,68.9,40.1,30.17,South,180,8.9,8.9,35,0.00,,,0.00,WUHU21623XXSP,2013-04-21 22:30:00,
2013-04-21 17:35:00,68.7,40.5,30.17,SSE,157,0.0,8.9,36,0.00,,,0.00,WUHU21623XXSP,2013-04-21 22:35:00,
2013-04-21 17:40:00,68.7,40.5,30.17,SSE,157,3.6,3.6,36,0.00,,,0.00,WUHU21623XXSP,2013-04-21 22:40:00,
2013-04-21 17:45:00,68.5,40.3,30.17,SSE,157,0.0,3.6,36,0.00,,,0.00,WUHU21623XXSP,2013-04-21 22:45:00,
2013-04-21 17:50:00,68.5,40.3,30.17,SSE,157,0.0,0.0,36,0.00,,,0.00,WUHU21623XXSP,2013-04-21 22:50:00,
2013-04-21 17:55:00,68.4,40.2,30.17,SSE,157,0.0,0.0,36,0.00,,,0.00,WUHU21623XXSP,2013-04-21 22:55:00,
2013-04-21 18:00:00,68.2,40.7,30.17,SSE,157,0.0,0.0,37,0.00,,,0.00,WUHU21623XXSP,2013-04-21 23:00:00,
2013-04-21 18:05:00,67.8,40.4,30.17,SSE,157,0.0,0.0,37,0.00,,,0.00,WUHU21623XXSP,2013-04-21 23:05:00,
2013-04-21 18:11:00,67.6,41.0,30.17,SE,135,0.0,2.9,38,0.00,,,0.00,WUHU21623XXSP,2013-04-21 23:11:00,
2013-04-21 18:16:00,67.6,41.0,30.17,SSE,157,0.0,4.9,38,0.00,,,0.00,WUHU21623XXSP,2013-04-21 23:16:00,
2013-04-21 18:21:00,67.3,40.7,30.18,SSE,157,1.6,4.9,38,0.00,,,0.00,WUHU21623XXSP,2013-04-21 23:21:00,
2013-04-21 18:26:00,66.9,40.4,30.18,SSE,157,0.4,3.1,38,0.00,,,0.00,WUHU21623XXSP,2013-04-21 23:26:00,
2013-04-21 18:31:00,66.7,40.2,30.18,SSE,157,7.6,7.6,38,0.00,,,0.00,WUHU21623XXSP,2013-04-21 23:31:00,
2013-04-21 18:36:00,66.4,39.9,30.18,SSE,157,3.8,7.6,38,0.00,,,0.00,WUHU21623XXSP,2013-04-21 23:36:00,
2013-04-21 18:41:00,66.4,39.9,30.18,SSE,157,0.0,3.8,38,0.00,,,0.00,WUHU21623XXSP,2013-04-21 23:41:00,
2013-04-21 18:46:00,66.2,40.5,30.18,South,180,1.1,1.1,39,0.00,,,0.00,WUHU21623XXSP,2013-04-21 23:46:00,
2013-04-21 18:51:00,66.0,39.6,30.17,SSE,157,3.4,3.4,38,0.00,,,0.00,WUHU21623XXSP,2013-04-21 23:51:00,
2013-04-21 18:56:00,65.8,39.6,30.18,South,180,2.2,3.4,39,0.00,,,0.00,WUHU21623XXSP,2013-04-21 23:56:00,
2013-04-21 19:01:00,65.8,39.4,30.18,South,180,3.8,3.8,38,0.00,,,0.00,WUHU21623XXSP,2013-04-22 00:01:00,
2013-04-21 19:06:00,65.5,39.8,30.18,South,180,0.0,5.1,39,0.00,,,0.00,WUHU21623XXSP,2013-04-22 00:06:00,
2013-04-21 19:11:00,65.1,39.5,30.19,SSE,157,0.0,5.1,39,0.00,,,0.00,WUHU21623XXSP,2013-04-22 00:11:00,
2013-04-21 19:16:00,64.8,39.2,30.19,SSE,157,0.0,0.0,39,0.00,,,0.00,WUHU21623XXSP,2013-04-22 00:16:00,
2013-04-21 19:21:00,64.2,39.4,30.18,SSE,157,0.0,0.0,40,0.00,,,0.00,WUHU21623XXSP,2013-04-22 00:21:00,
2013-04-21 19:26:00,64.0,39.2,30.18,SW,225,3.4,3.4,40,0.00,,,0.00,WUHU21623XXSP,2013-04-22 00:26:00,
2013-04-21 19:31:00,64.0,39.2,30.18,SSE,157,0.0,4.3,40,0.00,,,0.00,WUHU21623XXSP,2013-04-22 00:31:00,
2013-04-21 19:36:00,63.5,38.8,30.18,SSE,157,0.0,4.3,40,0.00,,,0.00,WUHU21623XXSP,2013-04-22 00:36:00,
2013-04-21 19:41:00,63.1,39.0,30.19,SSE,157,0.0,0.0,41,0.00,,,0.00,WUHU21623XXSP,2013-04-22 00:41:00,
2013-04-21 19:46:00,63.0,38.8,30.18,SSE,157,0.0,0.0,41,0.00,,,0.00,WUHU21623XXSP,2013-04-22 00:46:00,
2013-04-21 19:51:00,62.2,38.8,30.18,SSE,157,0.0,0.0,42,0.00,,,0.00,WUHU21623XXSP,2013-04-22 00:51:00,
2013-04-21 19:56:00,61.9,38.6,30.18,SSE,157,0.0,0.0,42,0.00,,,0.00,WUHU21623XXSP,2013-04-22 00:56:00,
2013-04-21 20:01:00,61.7,38.3,30.18,South,180,0.0,0.0,42,0.00,,,0.00,WUHU21623XXSP,2013-04-22 01:01:00,
2013-04-21 20:06:00,61.5,38.7,30.19,SSE,157,0.0,0.0,43,0.00,,,0.00,WUHU21623XXSP,2013-04-22 01:06:00,
2013-04-21 20:11:00,61.2,38.4,30.19,SSE,157,0.0,0.0,43,0.00,,,0.00,WUHU21623XXSP,2013-04-22 01:11:00,
2013-04-21 20:16:00,60.6,37.9,30.19,SSE,157,0.0,0.0,43,0.00,,,0.00,WUHU21623XXSP,2013-04-22 01:16:00,
2013-04-21 20:21:00,60.1,38.0,30.19,SSE,157,0.0,0.0,44,0.00,,,0.00,WUHU21623XXSP,2013-04-22 01:21:00,
2013-04-21 20:26:00,59.7,37.7,30.19,SSE,157,0.0,0.0,44,0.00,,,0.00,WUHU21623XXSP,2013-04-22 01:26:00,
2013-04-21 20:31:00,59.0,37.6,30.20,SSE,157,0.0,0.0,45,0.00,,,0.00,WUHU21623XXSP,2013-04-22 01:31:00,
2013-04-21 20:36:00,58.8,37.4,30.20,SSE,157,0.0,0.0,45,0.00,,,0.00,WUHU21623XXSP,2013-04-22 01:36:00,
2013-04-21 20:41:00,58.5,37.1,30.20,SSE,157,0.0,0.0,45,0.00,,,0.00,WUHU21623XXSP,2013-04-22 01:41:00,
2013-04-21 20:46:00,57.9,37.3,30.20,SSE,157,0.0,0.0,46,0.00,,,0.00,WUHU21623XXSP,2013-04-22 01:46:00,
2013-04-21 20:51:00,57.6,37.0,30.20,SSE,157,0.0,0.0,47,0.00,,,0.00,WUHU21623XXSP,2013-04-22 01:51:00,
2013-04-21 20:56:00,57.4,37.4,30.20,SSE,157,0.0,0.0,47,0.00,,,0.00,WUHU21623XXSP,2013-04-22 01:56:00,
2013-04-21 21:01:00,57.2,37.3,30.20,SSE,157,0.0,0.0,47,0.00,,,0.00,WUHU21623XXSP,2013-04-22 02:01:00,
2013-04-21 21:06:00,57.0,37.5,30.20,SSE,157,0.0,0.0,48,0.00,,,0.00,WUHU21623XXSP,2013-04-22 02:06:00,
2013-04-21 21:11:00,57.0,37.5,30.21,SSE,157,0.0,0.0,48,0.00,,,0.00,WUHU21623XXSP,2013-04-22 02:11:00,
2013-04-21 21:16:00,56.8,37.3,30.20,SSE,157,0.0,0.0,48,0.00,,,0.00,WUHU21623XXSP,2013-04-22 02:16:00,
2013-04-21 21:21:00,56.5,37.0,30.21,SSE,157,0.0,0.0,48,0.00,,,0.00,WUHU21623XXSP,2013-04-22 02:21:00,
2013-04-21 21:26:00,56.3,36.8,30.21,SSE,157,0.0,0.0,48,0.00,,,0.00,WUHU21623XXSP,2013-04-22 02:26:00,
2013-04-21 21:31:00,55.9,36.4,30.21,SSE,157,0.0,0.0,48,0.00,,,0.00,WUHU21623XXSP,2013-04-22 02:31:00,
2013-04-21 21:36:00,55.8,36.3,30.22,SSE,157,0.0,0.0,48,0.00,,,0.00,WUHU21623XXSP,2013-04-22 02:36:00,
2013-04-21 21:41:00,55.4,35.9,30.22,SSE,157,0.0,0.0,48,0.00,,,0.00,WUHU21623XXSP,2013-04-22 02:41:00,
2013-04-21 21:46:00,55.0,36.3,30.22,SSE,157,0.0,0.0,49,0.00,,,0.00,WUHU21623XXSP,2013-04-22 02:46:00,
2013-04-21 21:51:00,54.9,36.0,30.22,SSE,157,0.0,0.0,49,0.00,,,0.00,WUHU21623XXSP,2013-04-22 02:51:00,
2013-04-21 21:56:00,54.9,36.2,30.22,SSE,157,0.0,0.0,49,0.00,,,0.00,WUHU21623XXSP,2013-04-22 02:56:00,
2013-04-21 22:01:00,54.9,36.0,30.22,SSE,157,0.0,0.0,49,0.00,,,0.00,WUHU21623XXSP,2013-04-22 03:01:00,
2013-04-21 22:06:00,55.0,36.2,30.22,SSE,157,0.0,0.0,49,0.00,,,0.00,WUHU21623XXSP,2013-04-22 03:06:00,
2013-04-21 22:11:00,55.0,36.2,30.22,SSE,157,0.0,0.0,49,0.00,,,0.00,WUHU21623XXSP,2013-04-22 03:11:00,
2013-04-21 22:16:00,55.0,36.2,30.22,SSE,157,0.0,0.0,49,0.00,,,0.00,WUHU21623XXSP,2013-04-22 03:16:00,
2013-04-21 22:21:00,54.9,36.0,30.23,SSE,157,0.0,0.0,49,0.00,,,0.00,WUHU21623XXSP,2013-04-22 03:21:00,
2013-04-21 22:26:00,54.9,36.0,30.23,SSE,157,0.0,0.0,49,0.00,,,0.00,WUHU21623XXSP,2013-04-22 03:26:00,
2013-04-21 22:31:00,54.7,35.8,30.22,SSE,157,0.0,0.0,49,0.00,,,0.00,WUHU21623XXSP,2013-04-22 03:31:00,
2013-04-21 22:36:00,54.5,36.2,30.23,SSE,157,0.0,0.0,50,0.00,,,0.00,WUHU21623XXSP,2013-04-22 03:36:00,
2013-04-21 22:41:00,54.5,36.2,30.23,SSE,157,0.0,0.0,50,0.00,,,0.00,WUHU21623XXSP,2013-04-22 03:41:00,
2013-04-21 22:46:00,54.3,36.1,30.23,SSE,157,0.0,0.0,50,0.00,,,0.00,WUHU21623XXSP,2013-04-22 03:46:00,
2013-04-21 22:51:00,54.3,36.1,30.23,SSE,157,0.0,0.0,50,0.00,,,0.00,WUHU21623XXSP,2013-04-22 03:51:00,
2013-04-21 22:56:00,54.3,36.1,30.23,SSE,157,0.0,0.0,50,0.00,,,0.00,WUHU21623XXSP,2013-04-22 03:56:00,
2013-04-21 23:01:00,54.0,35.7,30.23,SSE,157,0.0,0.0,50,0.00,,,0.00,WUHU21623XXSP,2013-04-22 04:01:00,
2013-04-21 23:06:00,53.8,35.6,30.23,SSE,157,0.0,0.0,50,0.00,,,0.00,WUHU21623XXSP,2013-04-22 04:06:00,
2013-04-21 23:11:00,53.8,35.6,30.23,SSE,157,0.0,0.0,50,0.00,,,0.00,WUHU21623XXSP,2013-04-22 04:11:00,
2013-04-21 23:16:00,53.8,35.6,30.23,SSE,157,0.0,0.0,50,0.00,,,0.00,WUHU21623XXSP,2013-04-22 04:16:00,
2013-04-21 23:21:00,53.4,35.3,30.23,SSE,157,0.0,0.0,50,0.00,,,0.00,WUHU21623XXSP,2013-04-22 04:21:00,
2013-04-21 23:26:00,53.4,35.3,30.23,SSE,157,0.0,0.0,50,0.00,,,0.00,WUHU21623XXSP,2013-04-22 04:26:00,
2013-04-21 23:31:00,53.2,35.5,30.23,SSE,157,0.0,0.0,51,0.00,,,0.00,WUHU21623XXSP,2013-04-22 04:31:00,
2013-04-21 23:36:00,52.9,35.2,30.23,SSE,157,0.0,0.0,51,0.00,,,0.00,WUHU21623XXSP,2013-04-22 04:36:00,
2013-04-21 23:41:00,52.7,35.1,30.23,SSE,157,0.0,0.0,51,0.00,,,0.00,WUHU21623XXSP,2013-04-22 04:41:00,
2013-04-21 23:46:00,52.3,35.2,30.24,SSE,157,0.0,0.0,52,0.00,,,0.00,WUHU21623XXSP,2013-04-22 04:46:00,
2013-04-21 23:51:00,52.3,35.2,30.24,SSE,157,0.0,0.0,52,0.00,,,0.00,WUHU21623XXSP,2013-04-22 04:51:00,
2013-04-21 23:56:00,52.2,35.5,30.23,SSE,157,0.0,0.0,53,0.00,,,0.00,WUHU21623XXSP,2013-04-22 04:56:00,